(284571) = 2007 TR56

Discovered at Kitt Peak on 2007-10-04 by Spacewatch.

Orbit

Orbit type: Main Belt

Note: WebGL enabled browser required.

epoch2024-03-31.0
epoch JD2460400.5
perihelion date2021-04-24.70978
perihelion JD2459329.20978
argument of perihelion (°)297.65980
ascending node (°)20.26795
inclination (°)2.67163
eccentricity0.0781885
perihelion distance (AU)2.6291396
Tisserand w.r.t. Jupiter3.3
ΔV w.r.t. Earth (km/sec)10.2
semimajor axis (AU)2.8521444
mean anomaly (°)219.20664
mean daily motion (°/day)0.20461930
aphelion distance (AU)3.075
period (years)4.82
P-vector [x]0.74196692
P-vector [y]-0.59752383
P-vector [z]-0.30405652
Q-vector [x]0.67024203
Q-vector [y]0.67200585
Q-vector [z]0.31493453
absolute magnitude16.79
phase slope0.15
uncertainty0
referenceMPEC 2024-F14
observations used377
oppositions17
arc length (days)8742
first opposition used2000
last opposition used2024
residual rms (arc-secs)0.67
perturbers coarse indicatorM-v
perturbers precise indicator003Ek
first observation date used2000-04-10.0
last observation date used2024-03-17.0
computer nameMPCLINUX
JD of orbit computation2456731.449324
perihelion JD uncertainty (days)2.0200E-04
argument of perihelion uncertainty (°)1.1186E-04
ascending node uncertainty (°)1.0532E-04
inclination uncertainty (°)5.6303E-06
eccentricity uncertainty 4.9969E-08
perihelion distance uncertainty (AU)1.4966E-07
Minimum Orbit Intersection Distances (in AU)
for orbit epoch: 2460400.5, reference: E2024-F14
Mercury2.19836
Venus1.90101
Earth1.61702
Mars1.23203
Jupiter2.1371
Saturn6.02962
Uranus15.3848
Neptune26.9816

Observations

385 total observations over interval: 2000 04 10.18985 – 2024 03 17.455394
These data are available for download (format description).

Date (UT) J2000 RA J2000 Dec Magn Location Ref
2000 04 10.18985 11 28 48.23 +04 49 09.5 22.2 R 695 – Kitt Peak MPS 291509
2000 04 10.27376 11 28 45.10 +04 49 23.1   695 – Kitt Peak MPS 291509
2002 10 28.20876 01 12 52.06 +08 03 44.9 22.1 V 291 – LPL/Spacewatch II MPS 291509
2002 10 28.23217 01 12 50.96 +08 03 39.9 21.5 V 291 – LPL/Spacewatch II MPS 291509
2002 10 28.25559 01 12 49.83 +08 03 34.5 21.9 V 291 – LPL/Spacewatch II MPS 291509
2005 04 04.36581 12 38 39.00 -03 28 37.8 20.3 R G96 – Mt. Lemmon Survey MPS 291509
2005 04 04.37208 12 38 38.68 -03 28 36.1 20.5 R G96 – Mt. Lemmon Survey MPS 291509
2005 04 04.37840 12 38 38.39 -03 28 34.6 20.2 R G96 – Mt. Lemmon Survey MPS 291509
2005 04 04.38471 12 38 38.03 -03 28 32.8 20.3 R G96 – Mt. Lemmon Survey MPS 291509
2007 10 04.42465 02 50 59.89 +17 19 10.3   691 – Steward Observatory, Kitt Peak-Spacewatch MPS 220762
2007 10 04.44228 02 50 59.30 +17 19 08.6   691 – Steward Observatory, Kitt Peak-Spacewatch MPS 220762
2007 10 04.45989 02 50 58.67 +17 19 07.5   691 – Steward Observatory, Kitt Peak-Spacewatch MPS 220762
2007 10 08.32137 02 48 44.66 +17 13 32.8 20.6 V 691 – Steward Observatory, Kitt Peak-Spacewatch MPS 220762
2007 10 08.33900 02 48 44.00 +17 13 31.2 21.1 V 691 – Steward Observatory, Kitt Peak-Spacewatch MPS 220762
2007 10 08.35407 02 48 43.39 +17 13 29.8 20.8 V 691 – Steward Observatory, Kitt Peak-Spacewatch MPS 220762
2007 10 12.32781 02 46 05.44 +17 06 09.3 20.3 V 691 – Steward Observatory, Kitt Peak-Spacewatch MPS 291509
2007 10 12.34546 02 46 04.65 +17 06 07.4 19.8 V 691 – Steward Observatory, Kitt Peak-Spacewatch MPS 291509
2007 10 12.36311 02 46 03.92 +17 06 04.5 20.5 V 691 – Steward Observatory, Kitt Peak-Spacewatch MPS 291509
2007 10 21.31533 02 39 08.44 +16 44 11.8   691 – Steward Observatory, Kitt Peak-Spacewatch MPS 291509
2007 10 21.33293 02 39 07.49 +16 44 08.9   691 – Steward Observatory, Kitt Peak-Spacewatch MPS 291509
2007 10 21.35053 02 39 06.55 +16 44 05.9   691 – Steward Observatory, Kitt Peak-Spacewatch MPS 291509
2007 10 31.23623 02 30 29.48 +16 13 20.2 19.7 V G96 – Mt. Lemmon Survey MPS 291509
2007 10 31.24292 02 30 29.12 +16 13 18.6 19.8 V G96 – Mt. Lemmon Survey MPS 291509
2007 10 31.24957 02 30 28.72 +16 13 17.4 19.7 V G96 – Mt. Lemmon Survey MPS 291509
2007 10 31.25630 02 30 28.36 +16 13 15.8 19.8 V G96 – Mt. Lemmon Survey MPS 291509
2007 12 15.16076 02 02 40.63 +14 17 02.1 22.5 V G96 – Mt. Lemmon Survey MPS 291509
2007 12 15.16906 02 02 40.56 +14 17 01.8 21.9 V G96 – Mt. Lemmon Survey MPS 291509
2007 12 15.17727 02 02 40.45 +14 17 02.1 21.1 V G96 – Mt. Lemmon Survey MPS 291509
2007 12 15.18546 02 02 40.38 +14 17 01.8 22.2 V G96 – Mt. Lemmon Survey MPS 291509
2009 01 20.22894 08 40 09.32 +22 19 01.1 20.9 V 691 – Steward Observatory, Kitt Peak-Spacewatch MPS 291509
2009 01 20.24734 08 40 08.29 +22 19 05.7 20.6 V 691 – Steward Observatory, Kitt Peak-Spacewatch MPS 291509
2009 01 20.26552 08 40 07.31 +22 19 08.8 20.6 V 691 – Steward Observatory, Kitt Peak-Spacewatch MPS 291509
2010 04 08.23304 13 45 21.54 -11 12 51.4 21.2 V 691 – Steward Observatory, Kitt Peak-Spacewatch MPS 320691
2010 04 08.25073 13 45 20.73 -11 12 48.0 20.9 V 691 – Steward Observatory, Kitt Peak-Spacewatch MPS 320691
2010 04 08.26842 13 45 19.84 -11 12 44.0 21.1 V 691 – Steward Observatory, Kitt Peak-Spacewatch MPS 320691
2010 04 17.18647 13 37 56.77 -10 38 55.0   691 – Steward Observatory, Kitt Peak-Spacewatch MPS 323486
2010 04 17.20414 13 37 55.94 -10 38 51.4   691 – Steward Observatory, Kitt Peak-Spacewatch MPS 323486
2010 04 17.22185 13 37 54.99 -10 38 46.9   691 – Steward Observatory, Kitt Peak-Spacewatch MPS 323486
2010 05 06.22874 13 22 56.64 -09 27 28.5 21.3 V G96 – Mt. Lemmon Survey MPS 324917
2010 05 06.23229 13 22 56.53 -09 27 27.5 21.1 V G96 – Mt. Lemmon Survey MPS 324917
2010 05 06.23586 13 22 56.31 -09 27 26.5 20.8 V G96 – Mt. Lemmon Survey MPS 324917
2010 05 06.23944 13 22 56.10 -09 27 26.6 20.1 V G96 – Mt. Lemmon Survey MPS 324917
2011 07 26.44083 21 02 29.501 -21 09 53.27 20.3 w F51 – Pan-STARRS 1, Haleakala MPS 387235
2011 07 26.45456 21 02 28.785 -21 09 56.06 20.3 w F51 – Pan-STARRS 1, Haleakala MPS 387235
2011 07 26.46832 21 02 28.059 -21 09 58.87 20.2 w F51 – Pan-STARRS 1, Haleakala MPS 387235
2011 07 26.48210 21 02 27.340 -21 10 01.69 20.2 w F51 – Pan-STARRS 1, Haleakala MPS 387235
2011 08 02.40963 20 56 29.622 -21 33 04.87 20.3 g F51 – Pan-STARRS 1, Haleakala MPS 388011
2011 08 02.42001 20 56 29.067 -21 33 06.99 20.6 g F51 – Pan-STARRS 1, Haleakala MPS 388011
2011 08 02.43213 20 56 28.395 -21 33 09.22 19.9 r F51 – Pan-STARRS 1, Haleakala MPS 388011
2011 08 02.44207 20 56 27.844 -21 33 11.12 19.9 r F51 – Pan-STARRS 1, Haleakala MPS 388011
2012 10 09.46029 04 05 06.28 +22 34 39.9 21.0 V G96 – Mt. Lemmon Survey MPS 437757
2012 10 09.46866 04 05 06.18 +22 34 40.7 20.9 V G96 – Mt. Lemmon Survey MPS 437757
2012 10 09.47725 04 05 06.00 +22 34 40.7 21.2 V G96 – Mt. Lemmon Survey MPS 437757
2012 10 09.48596 04 05 05.82 +22 34 40.8 21.7 V G96 – Mt. Lemmon Survey MPS 437757
2012 10 22.43438 03 59 16.15 +22 34 05.9 21.0 V 691 – Steward Observatory, Kitt Peak-Spacewatch MPS 439372
2012 10 22.43685 03 59 16.07 +22 34 05.7 21.1 V 691 – Steward Observatory, Kitt Peak-Spacewatch MPS 439372
2012 10 22.45208 03 59 15.51 +22 34 05.1 21.3 V 691 – Steward Observatory, Kitt Peak-Spacewatch MPS 439372
2012 10 22.45455 03 59 15.41 +22 34 05.3 21.2 V 691 – Steward Observatory, Kitt Peak-Spacewatch MPS 439372
2012 10 22.46978 03 59 14.79 +22 34 04.6 21.2 V 691 – Steward Observatory, Kitt Peak-Spacewatch MPS 439372
2012 10 22.47225 03 59 14.70 +22 34 04.8 20.8 V 691 – Steward Observatory, Kitt Peak-Spacewatch MPS 439372
2012 10 22.545725 03 59 12.124 +22 34 02.85 21.1 w F51 – Pan-STARRS 1, Haleakala MPS 439372
2012 10 22.551286 03 59 11.905 +22 34 02.68 21.2 w F51 – Pan-STARRS 1, Haleakala MPS 439372
2012 10 22.560248 03 59 11.567 +22 34 02.46 21.0 w F51 – Pan-STARRS 1, Haleakala MPS 439372
2012 10 22.565741 03 59 11.356 +22 34 02.15 21.0 w F51 – Pan-STARRS 1, Haleakala MPS 439372
2012 10 22.574725 03 59 11.003 +22 34 01.79 21.1 w F51 – Pan-STARRS 1, Haleakala MPS 439372
2012 10 22.589196 03 59 10.446 +22 34 01.30 21.0 w F51 – Pan-STARRS 1, Haleakala MPS 439372
2012 10 22.594676 03 59 10.232 +22 34 01.03 20.9 w F51 – Pan-STARRS 1, Haleakala MPS 439372
2012 11 17.15871 03 37 58.72 +21 54 07.3   691 – Steward Observatory, Kitt Peak-Spacewatch MPS 444766
2012 11 17.17405 03 37 57.88 +21 54 04.7   691 – Steward Observatory, Kitt Peak-Spacewatch MPS 444766
2012 11 17.18938 03 37 56.91 +21 54 02.9   691 – Steward Observatory, Kitt Peak-Spacewatch MPS 444766
2012 11 17.30620 03 37 50.16 +21 53 46.1 20.0 V G96 – Mt. Lemmon Survey MPS 444766
2012 11 17.31324 03 37 49.69 +21 53 44.9 20.3 V G96 – Mt. Lemmon Survey MPS 444766
2012 11 17.32039 03 37 49.36 +21 53 43.9 20.1 V G96 – Mt. Lemmon Survey MPS 444766
2012 11 17.32749 03 37 48.93 +21 53 43.3 20.3 V G96 – Mt. Lemmon Survey MPS 444766
2012 12 12.11037 03 17 00.77 +20 49 50.5 21.1 V 691 – Steward Observatory, Kitt Peak-Spacewatch MPS 447623
2012 12 12.17347 03 16 58.23 +20 49 42.3 20.7 V 691 – Steward Observatory, Kitt Peak-Spacewatch MPS 447623
2012 12 12.22120 03 16 56.32 +20 49 35.7 20.8 V 691 – Steward Observatory, Kitt Peak-Spacewatch MPS 447623
2014 01 24.38317 09 45 12.493 +17 11 23.38 21.2 w F51 – Pan-STARRS 1, Haleakala MPS 500073
2014 01 24.38448 09 45 12.426 +17 11 23.75 21.3 w F51 – Pan-STARRS 1, Haleakala MPS 500073
2014 01 24.39634 09 45 11.875 +17 11 26.50 21.3 w F51 – Pan-STARRS 1, Haleakala MPS 500073
2014 01 24.39765 09 45 11.804 +17 11 26.71 21.2 w F51 – Pan-STARRS 1, Haleakala MPS 500073
2014 01 24.40955 09 45 11.253 +17 11 29.66 21.2 w F51 – Pan-STARRS 1, Haleakala MPS 500073
2014 01 24.41087 09 45 11.192 +17 11 29.96 21.2 w F51 – Pan-STARRS 1, Haleakala MPS 500073
2014 01 24.42277 09 45 10.625 +17 11 32.90 21.3 w F51 – Pan-STARRS 1, Haleakala MPS 500073
2014 01 24.42408 09 45 10.570 +17 11 33.17 21.1 w F51 – Pan-STARRS 1, Haleakala MPS 500073
2014 01 28.23272 09 42 11.37 +17 26 51.5 20.5 V 691 – Steward Observatory, Kitt Peak-Spacewatch MPS 500073
2014 01 28.25046 09 42 10.43 +17 26 55.6 21.2 V 691 – Steward Observatory, Kitt Peak-Spacewatch MPS 500073
